Вернуться в каталог

ATLAS CENTAUR 2 DEB

АктивенLEO
NORAD 739·DEBRIS·🇺🇸 United States

Запущен Nov 27, 1963 с Cape Canaveral Space Force Station

Loading…

Ближайшие Пролёты (ближайшие 24 часа)

TLE

СвежийSource: Space-Track

Эпоха: Sep 14, 2026, 13:06 UTC

1 00739U 63047H   26257.54589874  .00000260  00000-0  31442-4 0  9997
2 00739  30.4232 336.4837 0635129  72.1591 294.7224 13.85342187153786

Отслеживайте ATLAS CENTAUR 2 DEB в реальном времени с AllMySat

Download on the App Store